ORBCOMM FM35 [+]

Last updated on July 6, 2021, 3:36 p.m. UTC

1 25985U 99065F   21186.87852597  .00000053  00000-0  70120-4 0  9999
2 25985  45.0419  50.2594 0003669  45.4036 314.7110 14.33071598127698
UTC
Height (km)
Latitude
Longitude
Inclination
Orbital Period
UTC large
Height (km)
Speed (km/s)
/
Latitude / Longitude
Inclination (degrees)
Orbital Period (minutes)
Azimuth
Elevation
Range (km)
Doppler Factor
iOS Compass Heading
iOS Angle